Regional Weather Roundup
Issued by NWS Pendleton, OR

Home | Current Version | Previous Version | Text Only | Print | Product List | Glossary On
Versions: 1 2 3 4 5 6 7 8 9 10 11 12 13 14 15 16 17 18 19 20 21 22 23 24 25 26 27 28 29 30 31 32 33 34 35 36 37 38 39 40 41 42 43 44 45 46 47 48 49 50
000
ASUS46 KPDT 010625
RWRPDT
PENDLETON REGIONAL WEATHER ROUNDUP
NATIONAL WEATHER SERVICE PENDLETON OREGON
1100 PM PDT TUE SEP 30 2014

NOTE: FAIR INDICATES FEW OR NO CLOUDS BELOW 12,000 FEET WITH NO
SIGNIFICANT WEATHER AND/OR OBSTRUCTIONS TO VISIBILITY.

# INDICATES UNOFFICIAL STATION AND DATA

WAZ520-010710-
EAST SLOPES OF WASHINGTON CASCADES

CITY            SKY/WX      TMP DP  RH  WIND    PRES   REMARKS
#BUMPING DAM    N/A         45  N/A N/A W7      N/A
#CLE ELUM HS    N/A         45  39  79  CALM    30.06F
#CLE ELUM 2NW   N/A         44  39  82  W1      N/A
#CLE ELUM LAKE  N/A         45  39  79  CALM    30.07R
#CLIFFDEL 2NW   N/A         46  40  79  W3      N/A
#GLENWOOD       N/A         40  37  89  CALM    30.08R
#MANASTASH CYN  N/A         47  36  65  CALM    30.05R
#NELSON         N/A         46  42  86  CALM    30.11S
#NELSON 3SW     N/A         43  38  82  CALM    30.29S
#NILE           N/A         47  40  76  CALM    29.34S
#RONALD 2NW     N/A         44  38  79  N1      29.99R
#SNOWDEN        N/A         47  37  68  N1      N/A
#TEANAWAY 4NE   N/A         46  39  76  CALM    N/A
#TROUT LAKE 1NE N/A         51  43  74  W7      30.09S
$$

WAZ521-010710-
SIMCOE HIGHLANDS

CITY            SKY/WX      TMP DP  RH  WIND    PRES   REMARKS
#BICKLETON HS   N/A         49  32  52  NW8     30.15S
#CENTERVILLE 4W N/A         51  46  83  NW9     29.86R
#CENTERVILLE 1SWN/A         49  44  83  W7      30.06S
#GOLDENDALE     N/A         50  45  83  W1      N/A
#GOLDENDALE 1NE N/A         45  39  79  CALM    N/A
#GOLDENDALE 1S  N/A         48  44  86  CALM    30.08S
#GOLDENDALE 5WNWN/A         46  40  79  CALM    30.07S
#GOODNOE HILLS  N/A         54  46  74  W8      30.03R
#LYLE 6NE       N/A         53  48  83  SW7     30.07R
$$

WAZ026-010710-
KITTITAS VALLEY

CITY            SKY/WX      TMP DP  RH  WIND    PRES   REMARKS
ELLENSBURG AP   PTCLDY      51  39  63  N12     30.07S
6HR MIN TEMP:   51; 6HR MAX TEMP:   61;

#ELLENSBURG CWU N/A         50  41  71  N7      30.01S
#ELLENSBURG 3NE N/A         50  41  71  N6      30.07R
#ELLENSBURG     N/A         53  44  71  NW5     N/A
#KITTITAS 3S    N/A         47  40  76  CALM    30.03S
#THORP 6N       N/A         49  40  71  W15G29  30.06R WCI 43
$$

WAZ027-010710-
YAKIMA VALLEY

CITY            SKY/WX      TMP DP  RH  WIND    PRES   REMARKS
SUNNYSIDE AP    CLEAR       52  41  66  NW3     30.07R
YAKIMA AIRPORT  CLEAR       58  39  49  W10     30.07S
6HR MIN TEMP:   55; 6HR MAX TEMP:   69;

YAKIMA-VAGABOND CLEAR       52  38  59  E5      30.09R
#COWICHE 1N     N/A         54  40  59  N5      30.23S
#DONALD 2NE     N/A         58  35  42  E2      30.40R
#GRANDVIEW      N/A         54  40  59  CALM    30.07R
#MABTON         N/A         56  43  62  W3      30.06S
#MOXEE 2E       N/A         52  32  46  NW3     30.00S
#NACHES 2SW     N/A         54  41  61  NE5     30.08R
#OUTLOOK DOT    N/A         N/A N/A N/A SW2     N/A
#SELAH 8E       N/A         49  36  61  NW5     N/A
#TERRACE HTS    N/A         52  39  61  N2      30.02R
#TOPPENISH      N/A         55  42  61  SW1     29.98S
#WAPATO 4NE     N/A         58  35  42  E2      30.40R
#WEST VALLEY    N/A         53  41  64  CALM    30.04R
#W YAKIMA       N/A         57  40  53  N5      30.05S
#WHITE SWAN 5E  N/A         47  40  76  S2      30.07R
#WILEY CITY 3W  N/A         45  25  45  CALM    30.07R
$$

WAZ028-010710-
LOWER COLUMBIA BASIN...WASHINGTON

CITY            SKY/WX      TMP DP  RH  WIND    PRES   REMARKS
HANFORD         CLEAR       58  38  47  NW13    30.03
PASCO           CLEAR       57  39  51  W6      30.05R
6HR MIN TEMP:   54; 6HR MAX TEMP:   69;

PROSSER AWOS    N/A         52  41  66  SW7     30.09R
RICHLAND AWOS   CLEAR       54  37  52  W8      30.05R
#BASIN CITY 5SW N/A         54  42  64  W6      30.04R
#BENTON CITY    N/A         59  39  47  NW9     29.94R
#CONNELL 5N     N/A         50  38  63  NW2     30.00R
#CONNELL 5NW    N/A         50  39  66  NW2     29.97R
#ELTOPIA        N/A         52  43  71  CALM    30.00R
#ELTOPIA 6NW    N/A         51  42  71  W7      29.00R
#KENNEWICK 3S   N/A         55  38  53  CALM    30.04R
#PASCO-BROADMOORN/A         57  40  53  SW1     29.94R
#PATERSON       N/A         56  41  57  NW2     30.04R
#PROSSER        N/A         56  40  55  S6      30.05R
#SAGEMOOR 2W    N/A         56  43  62  S8      29.88R
#TOUCHET 2S     N/A         55  44  66  SW7     30.03R
#WEST PASCO     N/A         56  39  53  CALM    30.05R
$$

WAZ029-010710-
FOOTHILLS OF THE BLUES...WASHINGTON

CITY            SKY/WX      TMP DP  RH  WIND    PRES   REMARKS
WALLA WALLA AP  CLEAR       55  39  55  VRB5    30.07R
6HR MIN TEMP:   50; 6HR MAX TEMP:   68;

#DAYTON SCHOOL  N/A         52  34  50  CALM    30.04R
#LOWDEN 2SE     N/A         52  44  74  CALM    30.02R
#PLEASANT VIEW 1N/A         48  37  65  SW8     30.05R
#PRESCOTT       N/A         43  37  79  CALM    30.03R
#SUDBURY        N/A         49  N/A N/A CALM    N/A
#WHITMAN COLLEGEN/A         54  44  69  SE3     30.10R
#WAITSBURG 8N   N/A         41  28  59  CALM    29.97S
#WALLA WALLA 5E N/A         51  36  56  W7      N/A
#WALLA WALLA U  N/A         55  46  72  CALM    30.04R
#WHITMAN MISSIONN/A         51  44  77  CALM    30.06R
$$

WAZ030-010710-
BLUE MOUNTAINS...WASHINGTON

CITY            SKY/WX      TMP DP  RH  WIND    PRES   REMARKS
$$

ORZ009-041-WAZ024-010710-
COLUMBIA RIVER GORGE

CITY            SKY/WX      TMP DP  RH  WIND    PRES   REMARKS
HOOD RIVER AP   PTCLDY      55  45  69  CALM    30.14R
THE DALLES AP   CLEAR       57  44  62  CALM    30.11R
6HR MIN TEMP:   57; 6HR MAX TEMP:   68;

#ARLINGTON AIRPON/A         56  47  72  W12     29.97S
#ARLINGTON HS   N/A         58  47  67  CALM    29.98S
#LYLE           N/A         61  50  67  NW7     30.11S
#MARYHILL 2W    N/A         58  48  69  SE6     N/A
#MOSIER 1S      N/A         57  37  47  CALM    N/A
#MURDOCK        N/A         62  49  62  NW13    30.12S
#RUFUS DOT      N/A         N/A N/A N/A N6      N/A

$$

ORZ510-010710-
NORTH CENTRAL OREGON

CITY            SKY/WX      TMP DP  RH  WIND    PRES   REMARKS
#CHENOWITH 1W   N/A         53  44  71  W26     N/A
#COW CYN RST AREN/A         46  42  86  SW2     N/A
#DUFUR 9E       N/A         50  42  74  SW9     30.16R
#GRASS VALLEY   N/A         50  42  74  S1      N/A
#GRASS VALLEY 1SN/A         50  41  71  W7      30.13S
#KENT DOT       N/A         45  36  70  W10     N/A
#MAUPIN SCHOOL  N/A         54  43  66  CALM    29.01R
#MORO SCHOOL    N/A         53  47  80  W12     30.12R
#SHANIKO 5WSW   N/A         45  36  70  SW3     N/A
#SHANIKO 4NW    N/A         45  40  82  SW6     30.13F
#TYGH VALLEY 2NEN/A         51  42  71  CALM    30.10S
#WAPANITIA AIRPON/A         51  42  71  CALM    30.11S
#WASCO DOT      N/A         50  43  77  SW2     N/A
#WASCO 5NE      N/A         52  45  77  W3      30.08R
$$

ORZ511-010710-
CENTRAL OREGON

CITY            SKY/WX      TMP DP  RH  WIND    PRES   REMARKS
BEND AIRPORT    CLOUDY      48  37  65  CALM    30.18R
MADRAS AIRPORT  CLEAR       48  39  71  N3      30.17S
REDMOND AIRPORT CLOUDY      50  38  63  NW7     30.15S
6HR MIN TEMP:   50; 6HR MAX TEMP:   59;

#BEND 6E        N/A         45  37  73  CALM    30.09S
#BEND 1SW       N/A         41  36  82  CALM    N/A
#BEND-KIM LN    N/A         44  39  82  CALM    30.13F
#CROOKED RVR RANN/A         51  40  66  N18G26  30.12R
#CULVER         N/A         51  41  68  CALM    30.12S
#LAKE BILLY CHINN/A         50  26  39  CALM    30.19R
#POWELL BUTTE 3EN/A         49  41  74  W3      N/A
#POWELL BUTTE   N/A         49  39  68  W1      29.79R
#PRINEVILLE 3N  N/A         50  41  71  CALM    30.09S
#WARM SPRINGS   N/A         55  43  64  SW1     30.11F


ORZ509-010710-
EAST SLOPES OF OREGON CASCADES

CITY            SKY/WX      TMP DP  RH  WIND    PRES   REMARKS
#BLUE BOX PASS  N/A         42  -7  12  NW5     N/A
#CAMP SHERMAN   N/A         45  38  76  CALM    30.14S
#LA PINE DOT    N/A         37  33  85  CALM    N/A
#LA PINE 4NW    N/A         34  29  82  CALM    30.17R
#LAVA BUTTE DOT N/A         37  33  85  W7      N/A
#MT BACHELOR-MIDN/A         32  31  96  S13     N/A    WCI 22
#SISTERS AIRPOR N/A         48  43  83  CALM    29.91S
#SISTERS ODOT   N/A         46  N/A N/A CALM    N/A
#SISTERS 1NW    N/A         48  37  65  N6      N/A
#SISTERS 3N     N/A         42  34  73  CALM    N/A
#SUNRIVER       N/A         38  34  85  CALM    30.04R
#SUNRIVER AP    N/A         38  34  85  CALM    30.11R
#SUTTLE LK DOT  N/A         41  39  93  NE1     N/A
#TUMALO 3W      N/A         48  38  68  NW6     30.02S
#WANOGA BUTTE D N/A         36  32  85  CALM    N/A

$$

ORZ044-010710-
LOWER COLUMBIA BASIN...OREGON

CITY            SKY/WX      TMP DP  RH  WIND    PRES   REMARKS
HERMISTON       CLEAR       55  44  66  SW10    30.07R
6HR MIN TEMP:   55; 6HR MAX TEMP:   70;

#BOARDMAN SCHOOLN/A         65  52  63  W15G24  30.06R
#BOARDMAN 3W    N/A         55  46  72  SW5     29.79S
#BOARDMAN 8SW   N/A         53  47  80  SW5     30.07R
#ECHO 8SW       N/A         55  42  61  SW5     30.05R
#IONE SCHOOL    N/A         55  42  61  S7      30.09R
#IRRIGON 4NW    N/A         56  47  72  W7      N/A
#UMATILLA SCHOOLN/A         54  49  83  CALM    30.11R
#UMATILLA       N/A         56  44  64  SW3     30.04R
$$

ORZ507-010710-
NORTHERN FOOTHILLS OF THE BLUES

CITY            SKY/WX      TMP DP  RH  WIND    PRES   REMARKS
PENDLETON AIRPT CLEAR       54  41  61  W16     30.07R
6HR MIN TEMP:   54; 6HR MAX TEMP:   64; 6HR PCP:  0.01;

#ADAMS 3WNW     N/A         48  41  77  W2      30.05R
#ATHENA         N/A         51  43  74  CALM    30.07R
#CAYUSE         N/A         55  43  64  SW10    30.05R
#HELIX SCHOOL   N/A         50  42  74  W6      30.04R
#HELIX 3N       N/A         48  42  80  SW14    30.04R WCI 42
#HELIX 6SW      N/A         50  42  74  W6      30.07R
#HOLDMAN 5SE    N/A         51  43  74  SW3     30.08R
#HOLDMAN 6E     N/A         48  41  77  E1      29.87R
#M-F GROVE ELEM N/A         54  42  64  S2      30.05R
#M-FREEWATER 5SEN/A         51  44  77  S5      30.08R
#PENDLETON DNTN N/A         57  37  47  CALM    28.88R
#PDT AQUATIC CTRN/A         58  38  47  W6      30.09R
#PENDLETON 5NE  N/A         50  41  71  CALM    30.04R
#PDT SUNRIDGE   N/A         55  43  64  W3      30.09R
#PENDLETON 7NW  N/A         54  42  64  SW8     31.64S
#PILOT ROCK     N/A         54  38  55  S6      30.11R
#TUTUILLA       N/A         52  43  71  S3      30.08R
#UMAPINE 2E     N/A         47  42  83  CALM    30.03R

$$

ORZ508-010710-
SOUTHERN FOOTHILLS OF THE BLUES

CITY            SKY/WX      TMP DP  RH  WIND    PRES   REMARKS
LEXINGTON       CLEAR       52  41  66  SE6     30.12S
#AJAX           N/A         51  36  56  W8      30.05S
#CONDON SCHOOL  N/A         48  41  77  CALM    30.08S
#CONDON 5W      N/A         44  38  79  W12     30.09S WCI 38
#FOSSIL SCHOOL  N/A         45  38  76  CALM    30.10S
#HEPPNER EOC    N/A         48  40  74  E1      30.05R
#HEPPNER 4NE    N/A         47  40  76  SW6     30.09R
#LEXINGTON 2SE  N/A         50  40  68  CALM    30.08R
#MIKKALO        N/A         54  41  61  W10     30.10R
#RUGGS 5NE      N/A         45  39  79  SW3     30.27S
#RUGGS 2SW      N/A         48  39  71  W9      30.10R

$$

ORZ502-503-010710-
BLUE MOUNTAINS

CITY            SKY/WX      TMP DP  RH  WIND    PRES   REMARKS
MEACHAM         CLOUDY      46  39  76  VRB3    30.10R
6HR MIN TEMP:   45; 6HR MAX TEMP:   49; 6HR PCP:  0.03;

#BATTLE MTN DOT N/A         44  42  93  CALM    N/A
#HARDMAN 10S    N/A         42  37  82  W1      30.16S
#HEPPNER 15SE   N/A         43  38  82  W5      30.03R
#LADD CYN SMT   N/A         47  33  58  N7      N/A
#LADD CREEK ODOTN/A         44  41  89  CALM    N/A
#LONG CREEK HS  N/A         47  42  83  CALM    30.08R
#N POWDER DOT   N/A         44  38  79  N3      N/A
#PIKES PEAK     N/A         48  36  63  SW10    27.99S
#TROY SCHOOL    N/A         49  39  68  W5      29.88R
#UKIAH          N/A         48  39  71  CALM    30.08S
#WESTON 4E      N/A         45  40  82  SW5     30.01R
$$

ORZ505-010710-
JOHN DAY BASIN

CITY            SKY/WX      TMP DP  RH  WIND    PRES   REMARKS
JOHN DAY        CLOUDY      48  37  65  NW3     30.12S
#JOHN DAY KJDY  N/A         42  37  82  N1      30.25R
#DAYVILLE SCHOOLN/A         52  38  59  CALM    30.09S
#MONUMENT HS    N/A         49  38  66  NE1     30.12R
#MT. VERNON 5SE N/A         45  36  70  CALM    30.08R
#WINLOCK        N/A         46  38  73  CALM    30.19R
$$

ORZ506-010710-
OCHOCO AND JOHN DAY HIGHLANDS

CITY            SKY/WX      TMP DP  RH  WIND    PRES   REMARKS
#BUCK CREEK DOT N/A         43  39  86  CALM    N/A
#HORSE RIDGE DO N/A         44  37  76  W1      N/A
#KEYES SMT DOT  N/A         45  38  76  NW6     N/A
#PAULINA SCHOOL N/A         44  34  68  CALM    30.12R
#PINE MTN OBS   N/A         35  34  96  N3      N/A
#PRAIRIE CITY   N/A         34  31  89  CALM    30.27R
#SENECA         N/A         40  N/A N/A CALM    N/A
#SENECA 9NW     N/A         39  32  76  CALM    30.06R
$$

ORZ049-010710-
GRANDE RONDE VALLEY

CITY            SKY/WX      TMP DP  RH  WIND    PRES   REMARKS
LA GRANDE       MOCLDY      52  34  50  N8      30.09R
#COVE           N/A         47  43  86  E1      30.00R
#COVE SCHOOL    N/A         47  42  83  E1      30.06R
#COVE 6NW       N/A         47  39  74  CALM    30.10R
#ELGIN 3N       N/A         42  39  89  CALM    29.81R
#ELGIN 1E       N/A         45  41  86  CALM    N/A
#IMBLER SCHOOL  N/A         48  41  77  S2      30.04R
#LADD CYN DOT   N/A         48  40  74  NE5     N/A
#UNION 1S       N/A         48  42  80  CALM    29.97R
$$

ORZ050-010710-
WALLOWA COUNTY

CITY            SKY/WX      TMP DP  RH  WIND    PRES   REMARKS
JOSEPH AIRPORT  CLOUDY      43  41  93  CALM    30.10S
#ENTERPRISE AP  N/A         43  37  79  VRB2    30.02S
#ENTERPRISE HS  N/A         43  39  86  CALM    30.09S
#IMNAHA SCHOOL  N/A         50  42  74  CALM    30.01R
#IMNAHA 10S     N/A         51  40  66  S8      30.06R
#JOSEPH 3N      N/A         42  38  86  CALM    30.10R
#JOSEPH 3W      N/A         39  39  100 CALM    29.93S
#LOSTINE        N/A         43  40  89  CALM    29.86R
#MT HOWARD 8000 N/A         30  29  96  NW7     30.08R
#PROMISE 1S     N/A         45  37  73  E5      30.15F
#SHEEP RDG 7000 N/A         32  31  96  CALM    30.12R
#WALLOWA SCHOOL N/A         43  40  89  CALM    30.98R



$$



USA.gov is the U.S. government's official web portal to all federal, state and local government web resources and services.